Weather History for Camdenton, MO

Change the Weather History Date:

Wednesday, February 26, 2014

  Actual Average (KAIZ) Record (KAIZ)
Temperature  
Mean Temperature 20 °F -  
Max Temperature 30 °F 46 °F 68 °F (2009)
Min Temperature 10 °F 28 °F 8 °F (2014)
Degree Days  
Heating Degree Days 45    
Moisture  
Dew Point 5 °F    
Average Humidity 55    
Maximum Humidity 93    
Minimum Humidity 31    
Precipitation  
Precipitation 0.00 in - - ()
Sea Level Pressure  
Sea Level Pressure 30.21 in    
Wind  
Wind Speed 9 mph (West)    
Max Wind Speed 16 mph    
Max Gust Speed 21 mph    
Visibility 9 miles    
Events Snow    
Averages and records for this station are not official NWS values.
T = Trace of Precipitation, MM = Missing Value Source: NWS Daily Summary

Daily Weather History Graph

Daily Weather History Graph

Search for Another Location

Airport:

Trip Planner

Search our weather history database for the weather conditions in past years. The results will help you decide how hot, cold, wet, or windy it might be!

Date:

Astronomy

Feb. 26, 2014 Rise Set
Actual Time 6:46 AM CST 6:01 PM CST
Civil Twilight 6:20 AM CST 6:27 PM CST
Nautical Twilight 5:49 AM CST 6:58 PM CST
Astronomical Twilight 5:19 AM CST 7:28 PM CST
Moon 4:31 AM CST (2/26) 3:18 PM CST (2/26)
Length of Visible Light 12h 07m
Length of Day
11h 14m
Waning Crescent, 10% of the Moon is Illuminated
Feb 26
Waning Crescent
Mar 1
New
Mar 8
First Quarter
Mar 16
Full
Mar 23
Last Quarter

Hourly Weather History & Observations

Time (CST) Temp. Windchill Dew Point Humidity Pressure Visibility Wind Dir Wind Speed Gust Speed Precip Events Conditions
12:15 AM 19.4 °F 6.6 °F 14.0 °F 80% 30.37 in 4.0 mi NW 12.7 mph 17.3 mph N/A Snow Light Snow
12:35 AM 17.6 °F 2.7 °F 12.2 °F 79% 30.37 in 4.0 mi NW 16.1 mph 20.7 mph N/A Snow Light Snow
12:55 AM 17.6 °F 3.7 °F 12.2 °F 79% 30.37 in 2.0 mi NW 13.8 mph - N/A Snow Light Snow
1:15 AM 15.8 °F 5.1 °F 12.2 °F 86% 30.37 in 2.5 mi NW 8.1 mph - N/A Snow Light Snow
1:35 AM 15.8 °F 5.1 °F 12.2 °F 86% 30.36 in 2.0 mi NNW 8.1 mph - N/A Snow Light Snow
1:55 AM 14.0 °F 3.9 °F 12.2 °F 93% 30.36 in 1.8 mi NNW 6.9 mph - N/A Snow Light Snow
2:15 AM 15.8 °F 6.1 °F 12.2 °F 86% 30.36 in 2.5 mi NW 6.9 mph - N/A Snow Light Snow
2:35 AM 15.8 °F 6.1 °F 12.2 °F 86% 30.34 in 10.0 mi NW 6.9 mph - N/A   Overcast
2:55 AM 15.8 °F 5.1 °F 10.4 °F 79% 30.34 in 10.0 mi NW 8.1 mph - N/A   Overcast
3:15 AM 15.8 °F 4.2 °F 10.4 °F 79% 30.34 in 10.0 mi NW 9.2 mph - N/A   Overcast
3:35 AM 15.8 °F 4.2 °F 8.6 °F 73% 30.32 in 10.0 mi NW 9.2 mph - N/A   Scattered Clouds
3:55 AM 15.8 °F 2.7 °F 8.6 °F 73% 30.34 in 10.0 mi NW 11.5 mph 16.1 mph N/A   Mostly Cloudy
4:15 AM 15.8 °F 4.2 °F 8.6 °F 73% 30.32 in 10.0 mi NNW 9.2 mph - N/A   Overcast
4:35 AM 15.8 °F 5.1 °F 8.6 °F 73% 30.33 in 10.0 mi NW 8.1 mph - N/A   Overcast
4:55 AM 15.8 °F 6.1 °F 6.8 °F 68% 30.32 in 10.0 mi NW 6.9 mph - N/A   Overcast
5:15 AM 14.0 °F 2.9 °F 6.8 °F 73% 30.33 in 10.0 mi North 8.1 mph 17.3 mph N/A   Overcast
5:35 AM 12.2 °F -1.8 °F 5.0 °F 73% 30.34 in 10.0 mi NNW 11.5 mph - N/A   Mostly Cloudy
5:55 AM 12.2 °F -1.0 °F 5.0 °F 73% 30.33 in 10.0 mi North 10.4 mph - N/A   Mostly Cloudy
6:15 AM 12.2 °F 1.7 °F 3.2 °F 67% 30.32 in 10.0 mi NNW 6.9 mph - N/A   Scattered Clouds
6:35 AM 10.4 °F 0.8 °F 1.4 °F 67% 30.32 in 10.0 mi NNW 5.8 mph - N/A   Clear
6:55 AM 10.4 °F -0.4 °F -0.4 °F 62% 30.32 in 10.0 mi NNW 6.9 mph - N/A   Clear
7:15 AM 10.4 °F 0.8 °F -0.4 °F 62% 30.33 in 10.0 mi NW 5.8 mph - N/A   Clear
7:35 AM 10.4 °F 2.2 °F 1.4 °F 67% 30.34 in 10.0 mi NW 4.6 mph - N/A   Clear
7:55 AM 12.2 °F 2.9 °F 3.2 °F 67% 30.34 in 10.0 mi NW 5.8 mph - N/A   Clear
8:15 AM 12.2 °F 2.9 °F 3.2 °F 67% 30.34 in 10.0 mi North 5.8 mph - N/A   Clear
8:35 AM 12.2 °F 2.9 °F 3.2 °F 67% 30.33 in 10.0 mi North 5.8 mph - N/A   Clear
8:50 AM 14.0 °F 5.1 °F 3.2 °F 62% 30.33 in 10.0 mi NNW 5.8 mph - N/A   Clear
9:15 AM 14.0 °F 3.9 °F 3.2 °F 62% 30.34 in 10.0 mi NW 6.9 mph - N/A   Clear
9:35 AM 14.0 °F 3.9 °F 3.2 °F 62% 30.34 in 10.0 mi NW 6.9 mph - N/A   Clear
9:55 AM 14.0 °F 3.9 °F 3.2 °F 62% 30.33 in 10.0 mi WNW 6.9 mph - N/A   Clear
10:15 AM 15.8 °F 6.1 °F 5.0 °F 62% 30.32 in 10.0 mi NNW 6.9 mph - N/A   Clear
10:35 AM 17.6 °F 10.7 °F 5.0 °F 58% 30.32 in 10.0 mi WNW 4.6 mph - N/A   Clear
10:55 AM 17.6 °F 7.3 °F 3.2 °F 53% 30.32 in 10.0 mi West 8.1 mph - N/A   Clear
11:15 AM 19.4 °F 11.5 °F 5.0 °F 54% 30.30 in 10.0 mi West 5.8 mph 9.2 mph N/A   Clear
11:35 AM 19.4 °F 12.8 °F 3.2 °F 49% 30.29 in 10.0 mi SW 4.6 mph - N/A   Clear
11:55 AM 19.4 °F 7.9 °F 6.8 °F 58% 30.27 in 10.0 mi West 10.4 mph - N/A   Clear
12:15 PM 21.2 °F 11.7 °F 5.0 °F 50% 30.25 in 10.0 mi WSW 8.1 mph - N/A   Clear
12:35 PM 23.0 °F 17.0 °F 5.0 °F 46% 30.23 in 10.0 mi South 4.6 mph - N/A   Clear
12:55 PM 23.0 °F 12.4 °F 5.0 °F 46% 30.22 in 10.0 mi WSW 10.4 mph - N/A   Clear
1:15 PM 26.6 °F 16.2 °F 5.0 °F 40% 30.20 in 10.0 mi West 11.5 mph 19.6 mph N/A   Clear
1:35 PM 26.6 °F 17.5 °F 5.0 °F 40% 30.18 in 10.0 mi West 9.2 mph 16.1 mph N/A   Clear
1:55 PM 26.6 °F 16.2 °F 3.2 °F 37% 30.16 in 10.0 mi WSW 11.5 mph 19.6 mph N/A   Clear
2:15 PM 26.6 °F 19.1 °F 3.2 °F 37% 30.15 in 10.0 mi West 6.9 mph - N/A   Clear
2:35 PM 28.4 °F 17.5 °F 3.2 °F 34% 30.14 in 10.0 mi West 13.8 mph - N/A   Clear
2:55 PM 28.4 °F 23.3 °F 3.2 °F 34% 30.12 in 10.0 mi SW 4.6 mph - N/A   Clear
3:15 PM 28.4 °F 19.7 °F 3.2 °F 34% 30.11 in 10.0 mi SW 9.2 mph 16.1 mph N/A   Clear
3:35 PM 28.4 °F 18.0 °F 3.2 °F 34% 30.10 in 10.0 mi West 12.7 mph 16.1 mph N/A   Clear
3:55 PM 30.2 °F 20.2 °F 3.2 °F 32% 30.09 in 10.0 mi West 12.7 mph 19.6 mph N/A   Clear
4:15 PM 30.2 °F 20.2 °F 3.2 °F 32% 30.08 in 10.0 mi SW 12.7 mph - N/A   Clear
4:35 PM 30.2 °F 22.6 °F 3.2 °F 32% 30.07 in 10.0 mi West 8.1 mph - N/A   Clear
4:55 PM 28.4 °F 19.1 °F 1.4 °F 31% 30.07 in 10.0 mi West 10.4 mph 19.6 mph N/A   Clear
5:15 PM 28.4 °F 19.7 °F 1.4 °F 31% 30.06 in 10.0 mi WSW 9.2 mph - N/A   Clear
5:35 PM 28.4 °F 20.4 °F 1.4 °F 31% 30.05 in 10.0 mi WSW 8.1 mph - N/A   Clear
5:55 PM 28.4 °F 20.4 °F 1.4 °F 31% 30.05 in 10.0 mi WSW 8.1 mph - N/A   Clear
6:15 PM 26.6 °F 17.5 °F 1.4 °F 34% 30.05 in 10.0 mi WSW 9.2 mph - N/A   Clear
6:35 PM 26.6 °F 18.2 °F 1.4 °F 34% 30.05 in 10.0 mi WSW 8.1 mph - N/A   Clear
6:55 PM 26.6 °F 18.2 °F 1.4 °F 34% 30.04 in 10.0 mi WSW 8.1 mph - N/A   Clear
7:15 PM 24.8 °F 16.1 °F 1.4 °F 36% 30.03 in 10.0 mi SW 8.1 mph - N/A   Clear
7:35 PM 24.8 °F 16.9 °F 3.2 °F 40% 30.03 in 10.0 mi SW 6.9 mph - N/A   Clear
7:55 PM 24.8 °F 16.1 °F 3.2 °F 40% 30.03 in 10.0 mi SW 8.1 mph - N/A   Clear
8:15 PM 24.8 °F 16.1 °F 3.2 °F 40% 30.03 in 10.0 mi SW 8.1 mph - N/A   Clear
8:35 PM 23.0 °F 14.7 °F 3.2 °F 43% 30.03 in 10.0 mi WSW 6.9 mph - N/A   Clear
8:55 PM 23.0 °F 14.7 °F 3.2 °F 43% 30.02 in 10.0 mi SW 6.9 mph - N/A   Clear
9:15 PM 23.0 °F 13.9 °F 3.2 °F 43% 30.02 in 10.0 mi SW 8.1 mph - N/A   Clear
9:35 PM 23.0 °F 13.1 °F 3.2 °F 43% 30.02 in 10.0 mi SW 9.2 mph - N/A   Clear
9:55 PM 23.0 °F 13.1 °F 3.2 °F 43% 30.02 in 10.0 mi SW 9.2 mph - N/A   Clear
10:15 PM 23.0 °F 13.1 °F 5.0 °F 46% 30.02 in 10.0 mi SW 9.2 mph - N/A   Clear
10:35 PM 23.0 °F 13.1 °F 5.0 °F 46% 30.02 in 10.0 mi SW 9.2 mph - N/A   Clear
10:55 PM 23.0 °F 12.4 °F 6.8 °F 50% 30.01 in 10.0 mi SW 10.4 mph - N/A   Clear
11:15 PM 23.0 °F 13.1 °F 6.8 °F 50% 30.01 in 10.0 mi SW 9.2 mph - N/A   Clear
11:35 PM 23.0 °F 13.1 °F 8.6 °F 54% 30.00 in 10.0 mi SW 9.2 mph - N/A   Clear
11:55 PM 23.0 °F 12.4 °F 8.6 °F 54% 30.00 in 10.0 mi WSW 10.4 mph - N/A   Clear